TimeCST,TemperatureF,Dew PointF,Humidity,Sea Level PressureIn,VisibilityMPH,Wind Direction,Wind SpeedMPH,Gust SpeedMPH,PrecipitationIn,Events,Conditions,WindDirDegrees,DateUTC
12:53 AM,57.9,42.1,56,29.90,10.0,South,4.6,-,N/A,,Mostly Cloudy,170,2013-02-25 06:53:00
1:24 AM,55.4,44.6,67,29.90,10.0,SE,6.9,-,0.00,,Overcast,130,2013-02-25 07:24:00
1:53 AM,54.0,48.0,80,29.90,6.0,ESE,8.1,-,0.01,Rain,Light Rain,120,2013-02-25 07:53:00
2:18 AM,53.6,48.2,82,29.87,4.0,East,6.9,-,0.03,Rain,Light Rain,100,2013-02-25 08:18:00
2:53 AM,52.0,48.9,89,29.86,7.0,ESE,3.5,-,0.05,Rain,Light Rain,110,2013-02-25 08:53:00
3:53 AM,52.0,48.9,89,29.84,7.0,East,6.9,-,0.02,Rain,Light Rain,80,2013-02-25 09:53:00
4:53 AM,52.0,48.9,89,29.86,3.0,East,9.2,-,0.06,Rain,Rain,100,2013-02-25 10:53:00
5:49 AM,51.8,50.0,94,29.89,2.5,Calm,Calm,-,0.14,Rain,Rain,0,2013-02-25 11:49:00
5:53 AM,52.0,50.0,93,29.89,2.5,Calm,Calm,-,0.15,Rain,Rain,0,2013-02-25 11:53:00
6:26 AM,51.8,50.0,94,29.89,3.0,ESE,4.6,-,0.10,Rain,Rain,110,2013-02-25 12:26:00
6:37 AM,51.8,50.0,94,29.89,3.0,SE,5.8,-,0.13,Rain,Rain,140,2013-02-25 12:37:00
6:53 AM,52.0,50.0,93,29.89,2.5,SE,4.6,-,0.17,Rain,Rain,130,2013-02-25 12:53:00
7:02 AM,51.8,51.8,100,29.90,3.0,Calm,Calm,-,0.01,Rain,Rain,0,2013-02-25 13:02:00
7:14 AM,53.6,51.8,94,29.91,4.0,North,6.9,-,0.03,Rain,Light Rain,360,2013-02-25 13:14:00
7:35 AM,51.8,51.8,100,29.92,2.0,North,5.8,-,0.05,Rain,Rain,10,2013-02-25 13:35:00
7:53 AM,52.0,51.1,97,29.93,2.0,ENE,4.6,-,0.08,Rain,Rain,70,2013-02-25 13:53:00
8:05 AM,51.8,51.8,100,29.94,1.5,East,6.9,-,0.03,Rain,Rain,90,2013-02-25 14:05:00
8:10 AM,51.8,51.8,100,29.94,1.2,East,9.2,-,0.05,Rain,Rain,100,2013-02-25 14:10:00
8:30 AM,51.8,51.8,100,29.91,1.8,East,9.2,-,0.10,Rain,Light Rain,80,2013-02-25 14:30:00
8:46 AM,51.8,51.8,100,29.89,1.8,ENE,11.5,-,0.13,Rain,Rain,70,2013-02-25 14:46:00
8:53 AM,53.1,51.1,93,29.88,3.0,East,10.4,-,0.14,Rain,Light Rain,80,2013-02-25 14:53:00
9:02 AM,53.6,51.8,94,29.89,4.0,East,9.2,17.3,0.00,Rain,Light Rain,90,2013-02-25 15:02:00
9:32 AM,53.6,51.8,94,29.87,2.5,East,9.2,-,0.04,Rain,Rain,90,2013-02-25 15:32:00
9:53 AM,54.0,52.0,93,29.85,4.0,East,12.7,18.4,0.08,Rain,Light Rain,100,2013-02-25 15:53:00
10:53 AM,55.9,54.0,93,29.81,10.0,ESE,17.3,26.5,0.00,,Overcast,120,2013-02-25 16:53:00
11:40 AM,57.2,55.4,94,29.81,10.0,ESE,12.7,20.7,N/A,,Overcast,120,2013-02-25 17:40:00
11:53 AM,59.0,55.0,87,29.81,10.0,ESE,18.4,25.3,N/A,,Overcast,120,2013-02-25 17:53:00
12:12 PM,59.0,55.4,88,29.80,10.0,ESE,17.3,24.2,N/A,,Overcast,120,2013-02-25 18:12:00
12:53 PM,61.0,55.0,81,29.79,10.0,ESE,17.3,25.3,N/A,,Overcast,110,2013-02-25 18:53:00
1:53 PM,61.0,55.0,81,29.79,10.0,SE,19.6,25.3,N/A,,Overcast,130,2013-02-25 19:53:00
2:11 PM,60.8,53.6,77,29.79,10.0,ESE,15.0,21.9,N/A,,Overcast,110,2013-02-25 20:11:00
2:28 PM,60.8,55.4,82,29.78,10.0,SE,12.7,-,N/A,,Overcast,130,2013-02-25 20:28:00
2:53 PM,61.0,55.0,81,29.78,10.0,East,10.4,-,N/A,,Overcast,90,2013-02-25 20:53:00
3:04 PM,60.8,55.4,82,29.78,10.0,East,12.7,17.3,N/A,,Overcast,90,2013-02-25 21:04:00
3:53 PM,61.0,54.0,78,29.75,10.0,ESE,13.8,24.2,N/A,,Overcast,110,2013-02-25 21:53:00
4:53 PM,60.1,54.0,80,29.74,10.0,East,12.7,-,N/A,,Overcast,100,2013-02-25 22:53:00
5:48 PM,57.2,55.4,94,29.77,2.5,ESE,9.2,-,0.04,Rain,Rain,110,2013-02-25 23:48:00
5:53 PM,57.9,55.0,90,29.75,2.0,East,10.4,-,0.06,Rain,Heavy Rain,80,2013-02-25 23:53:00
6:09 PM,57.2,55.4,94,29.75,1.8,East,9.2,-,0.06,Rain,Rain,90,2013-02-26 00:09:00
6:18 PM,57.2,55.4,94,29.75,2.0,East,9.2,-,0.09,Rain,Rain,100,2013-02-26 00:18:00
6:26 PM,57.2,55.4,94,29.74,3.0,East,10.4,-,0.11,Rain,Light Rain,100,2013-02-26 00:26:00
6:53 PM,57.0,55.0,93,29.73,7.0,East,9.2,18.4,0.12,Rain,Light Rain,90,2013-02-26 00:53:00
7:14 PM,57.2,55.4,94,29.72,1.8,ESE,12.7,-,0.05,Rain,Heavy Rain,110,2013-02-26 01:14:00
7:29 PM,57.2,55.4,94,29.72,2.5,ESE,12.7,-,0.08,Rain,Light Rain,110,2013-02-26 01:29:00
7:38 PM,57.2,55.4,94,29.72,5.0,ESE,16.1,23.0,0.08,,Overcast,110,2013-02-26 01:38:00
7:53 PM,57.0,55.0,93,29.70,10.0,East,13.8,21.9,0.08,Rain,Light Rain,100,2013-02-26 01:53:00
8:53 PM,57.0,55.0,93,29.70,2.0,ESE,10.4,-,0.10,Rain,Heavy Rain,110,2013-02-26 02:53:00
9:14 PM,57.2,55.4,94,29.72,2.5,ESE,11.5,-,0.09,Rain-Thunderstorm,Thunderstorms and Rain,120,2013-02-26 03:14:00
9:19 PM,57.2,55.4,94,29.70,1.5,East,10.4,-,0.16,Rain-Thunderstorm,Heavy Thunderstorms and Rain,100,2013-02-26 03:19:00
9:26 PM,57.2,55.4,94,29.69,1.2,East,10.4,-,0.20,Rain,Rain,90,2013-02-26 03:26:00
9:28 PM,57.2,55.4,94,29.68,1.8,East,10.4,-,0.20,Rain,Rain,80,2013-02-26 03:28:00
9:35 PM,57.2,55.4,94,29.68,2.0,East,10.4,-,0.24,Rain,Rain,90,2013-02-26 03:35:00
9:53 PM,57.0,55.0,93,29.66,1.8,East,9.2,-,0.31,Rain,Rain,80,2013-02-26 03:53:00
9:56 PM,57.2,55.4,94,29.67,2.0,East,9.2,-,0.02,Rain-Thunderstorm,Rain,90,2013-02-26 03:56:00
10:14 PM,57.2,55.4,94,29.67,1.5,ESE,13.8,21.9,0.12,Rain-Thunderstorm,Heavy Rain,110,2013-02-26 04:14:00
10:22 PM,57.2,55.4,94,29.64,2.0,East,18.4,26.5,0.14,Rain,Light Rain,90,2013-02-26 04:22:00
10:32 PM,57.2,55.4,94,29.65,4.0,ESE,13.8,21.9,0.16,Rain,Rain,120,2013-02-26 04:32:00
10:41 PM,57.2,55.4,94,29.63,2.0,ESE,15.0,26.5,0.20,Rain,Rain,110,2013-02-26 04:41:00
10:50 PM,57.2,55.4,94,29.66,8.0,SE,10.4,-,0.20,Rain,Light Rain,140,2013-02-26 04:50:00
10:53 PM,57.9,55.0,90,29.65,9.0,ESE,11.5,-,0.20,Rain,Light Rain,120,2013-02-26 04:53:00
11:11 PM,57.2,55.4,94,29.62,10.0,East,11.5,19.6,0.01,,Overcast,100,2013-02-26 05:11:00
11:26 PM,57.2,55.4,94,29.62,10.0,South,5.8,-,0.01,,Overcast,180,2013-02-26 05:26:00
11:44 PM,57.2,55.4,94,29.60,2.0,ESE,5.8,-,0.07,Rain,Rain,120,2013-02-26 05:44:00
11:47 PM,57.2,55.4,94,29.60,1.5,East,8.1,-,0.10,Rain,Heavy Rain,90,2013-02-26 05:47:00
11:53 PM,57.9,55.9,93,29.59,1.5,East,8.1,-,0.12,Rain,Rain,100,2013-02-26 05:53:00
11:56 PM,57.2,55.4,94,29.60,1.8,ESE,6.9,-,0.01,Rain-Thunderstorm,Rain,120,2013-02-26 05:56:00